TimeEDT,TemperatureF,Dew PointF,Humidity,Sea Level PressureIn,VisibilityMPH,Wind Direction,Wind SpeedMPH,Gust SpeedMPH,PrecipitationIn,Events,Conditions,WindDirDegrees,DateUTC
12:53 AM,57.0,24.1,28,30.13,10.0,SW,4.6,-,N/A,,Overcast,220,2012-04-08 04:53:00
1:53 AM,55.9,26.1,32,30.14,10.0,WSW,6.9,-,N/A,,Overcast,240,2012-04-08 05:53:00
2:53 AM,54.0,30.9,41,30.13,10.0,Calm,Calm,-,0.00,,Overcast,0,2012-04-08 06:53:00
3:53 AM,53.1,35.1,50,30.12,10.0,Calm,Calm,-,0.00,Rain,Light Rain,0,2012-04-08 07:53:00
4:53 AM,54.0,36.0,51,30.12,10.0,West,10.4,-,0.00,,Overcast,280,2012-04-08 08:53:00
5:53 AM,53.1,41.0,64,30.14,10.0,NW,10.4,-,N/A,,Overcast,310,2012-04-08 09:53:00
6:53 AM,51.1,39.9,66,30.16,10.0,NNW,20.7,-,N/A,,Overcast,330,2012-04-08 10:53:00
7:53 AM,48.9,39.9,71,30.19,10.0,NW,13.8,-,N/A,,Clear,320,2012-04-08 11:53:00
8:53 AM,51.1,37.0,59,30.20,10.0,NNW,17.3,24.2,N/A,,Clear,330,2012-04-08 12:53:00
9:53 AM,54.0,30.0,40,30.20,10.0,North,19.6,27.6,N/A,,Clear,350,2012-04-08 13:53:00
10:53 AM,55.9,27.0,33,30.21,10.0,North,19.6,-,N/A,,Clear,360,2012-04-08 14:53:00
11:53 AM,57.9,28.0,32,30.20,10.0,NNW,18.4,26.5,N/A,,Clear,330,2012-04-08 15:53:00
12:53 PM,61.0,26.1,26,30.19,10.0,NW,19.6,32.2,N/A,,Clear,320,2012-04-08 16:53:00
1:53 PM,62.1,25.0,24,30.18,10.0,NW,18.4,28.8,N/A,,Clear,310,2012-04-08 17:53:00
2:53 PM,63.0,12.9,14,30.17,10.0,NNW,21.9,33.4,N/A,,Clear,330,2012-04-08 18:53:00
3:53 PM,62.1,14.0,15,30.16,10.0,NW,20.7,33.4,N/A,,Clear,310,2012-04-08 19:53:00
4:53 PM,63.0,17.1,17,30.14,10.0,NW,16.1,-,N/A,,Clear,320,2012-04-08 20:53:00
5:53 PM,61.0,16.0,17,30.13,10.0,NW,12.7,-,N/A,,Clear,310,2012-04-08 21:53:00
6:53 PM,60.1,16.0,18,30.12,10.0,WNW,10.4,-,N/A,,Clear,300,2012-04-08 22:53:00
7:53 PM,57.0,18.0,22,30.11,10.0,West,4.6,-,N/A,,Clear,280,2012-04-08 23:53:00
8:53 PM,54.0,21.0,28,30.10,10.0,WSW,3.5,-,N/A,,Clear,240,2012-04-09 00:53:00
9:53 PM,52.0,23.0,32,30.10,10.0,WSW,5.8,-,N/A,,Mostly Cloudy,240,2012-04-09 01:53:00
10:53 PM,52.0,23.0,32,30.10,10.0,WSW,5.8,-,N/A,,Overcast,240,2012-04-09 02:53:00